Home   Weather   Teresina   Past weeks
Flag for Brazil

Past Weather in Teresina, Piauí, Brazil — Yesterday and Last 2 Weeks

Now
82 °F

Partly sunny.


Feels Like: 88 °F
Forecast: 88 / 73 °F
Wind: 5 mph from East

Location: Teresina Aeroporto

Current Time: Jan 19, 2019 at 11:35:07 am

Latest Report: Jan 19, 2019 at 10:00 am


Visibility: N/A

Pressure: 29.95 "Hg

Humidity: 74%

Dew Point: 73 °F

Location of TeresinaLocation

Past Weather in Teresina — Graph

°F

Teresina Temperature Yesterday

Maximum temperature yesterday: 90 °F (at 3:00 pm)
Minimum temperature yesterday: 75 °F (at 1:00 am)
Average temperature yesterday: 80 °F

High & Low Weather Summary for the Past Weeks

 TemperatureHumidityPressure
High97 °F (Jan 4, 3:00 pm)100% (Jan 19, 12:00 am)30.09 "Hg (Jan 19, 12:00 am)
Low72 °F (Jan 6, 1:00 am)24% (Jan 9, 10:00 pm)29.77 "Hg (Jan 4, 3:00 pm)
Average80 °F80%29.88 "Hg
* Reported Jan 4 10:00 am — Jan 19 10:00 am, Teresina. Weather by CustomWeather, © 2019

Note: Actual official high and low records may vary slightly from our data, if they occured in-between our weather recording intervals... More about our weather records

Advertising

Teresina Weather History for the Previous 24 Hours

Scroll right to see more
 ConditionsComfort  
Time TempWeatherWind HumidityBarometerVisibility
10:00 am
Sat, Jan 19
82 °FPartly sunny.5 mph74%29.95 "HgN/A
9:00 am81 °FScattered clouds.3 mph79%29.95 "HgN/A
8:00 am77 °FPartly sunny.3 mph89%29.92 "HgN/A
7:00 am75 °FPartly sunny.No wind100%29.89 "HgN/A
6:00 am75 °FSunny.1 mph94%29.86 "Hg10 mi
5:00 am73 °FClear.3 mph94%29.86 "Hg10 mi
4:00 am75 °FClear.2 mph94%29.86 "Hg10 mi
3:00 am75 °FClear.2 mph94%29.83 "Hg10 mi
2:00 am75 °FPassing clouds.3 mph94%29.83 "HgN/A
12:00 am75 °FPassing clouds.5 mph100%29.86 "HgN/A
11:00 pm
Fri, Jan 18
77 °FPassing clouds.6 mph94%29.89 "HgN/A
10:00 pm77 °FPassing clouds.6 mph94%29.89 "HgN/A
9:00 pm77 °FPassing clouds.5 mph94%29.89 "HgN/A
8:00 pm79 °FPassing clouds.6 mph89%29.86 "HgN/A
7:00 pm81 °FPassing clouds.3 mph84%29.83 "HgN/A
6:00 pm81 °FBroken clouds.2 mph79%29.83 "HgN/A
5:00 pm82 °FThunderstorms. Partly sunny.3 mph79%29.80 "HgN/A
4:29 pm82 °FThunderstorms. Partly sunny.7 mph79%30.09 "HgN/A
4:00 pm90 °FScattered clouds.6 mph59%29.80 "HgN/A
3:00 pm90 °FPartly sunny.5 mph59%29.80 "HgN/A
2:00 pm88 °FPartly sunny.3 mph66%29.83 "HgN/A
1:00 pm86 °FPartly sunny.6 mph70%29.89 "HgN/A
12:00 pm86 °FPartly sunny.3 mph70%29.92 "HgN/A
11:00 am84 °FPartly sunny.5 mph74%29.92 "HgN/A
Weather by CustomWeather, © 2019

See weather overview